Location: Unspecified
(0.0000°N, 0.0000°E)
Time: 03:15:55
(UTC+00:00)

Hubble Space Telescope - Pass Details

Date: 15 November 2019
Orbit: 536 x 540 km, 28.5° (Epoch: 10 November)

Event Time Altitude Azimuth Distance (km) Brightness Sun altitude
Exits shadow 05:05:44 12° 284° (WNW) 1,660 2.6 -9.2°
Maximum altitude 05:09:23 48° 210° (SSW) 701 1.3 -8.3°
Drops below altitude 10° 05:13:23 10° 135° (SE) 1,783 4.6 -7.4°
Sets 05:15:42 0° 129° (SE) 2,674 5.9 -6.8°
